Simultaneous Nadir Overpasses (SNOs) Predictions

Prediction of SNOs between GOES-16 and TERRA Satellite Orbit:

Table of predicted SNOs for the next 14.0 days since TLE Epoch: 5/25/2024
Index Date Time (GOES-16) GOES-16 Lat,Lon TERRA Lat,Lon Distance(km) Time Diff (sec)
1 05/25/2024 15:03:29 0.06, -75.21 0.84, -79.00 430.33 80
2 05/27/2024 14:48:48 0.05, -75.22 -0.02, -74.82 45.48 80
3 05/30/2024 02:51:32 -0.04, -75.22 -0.12, -75.52 33.84 80
4 06/01/2024 02:31:31 -0.04, -75.24 0.80, -71.34 444.15 80
5 06/01/2024 14:51:26 0.04, -75.26 0.20, -76.18 104.43 80
6 06/03/2024 14:36:43 0.04, -75.29 -0.63, -71.99 374.48 80
7 06/04/2024 02:56:48 -0.03, -75.28 -0.36, -76.87 180.69 80
8 06/06/2024 02:36:45 -0.03, -75.31 0.52, -72.68 298.66 80
9 06/06/2024 14:56:39 0.03, -75.33 0.48, -77.53 249.76 80
